Home   Weather   Kuwait City   Past weeks
Flag for Kuwait

Past Weather in Kuwait City, Kuwait — Yesterday and Last 2 Weeks

Now
54 °F

Sunny.


Feels Like: 52 °F
Forecast: 67 / 53 °F
Wind: 6 mph from Northwest

Location: Kuwait International Airport

Current Time: Feb 20, 2019 at 9:00:33 am

Latest Report: Feb 20, 2019 at 8:00 am


Visibility: 10 mi

Pressure: 30.12 "Hg

Humidity: 63%

Dew Point: 41 °F

Location of Kuwait CityLocation

Past Weather in Kuwait City — Graph

°F

Kuwait City Temperature Yesterday

Maximum temperature yesterday: 66 °F (at 2:00 pm)
Minimum temperature yesterday: 54 °F (at 12:00 am)
Average temperature yesterday: 60 °F

High & Low Weather Summary for the Past Weeks

 TemperatureHumidityPressure
High70 °F (Feb 17, 2:00 pm)94% (Feb 10, 7:00 am)30.36 "Hg (Feb 10, 7:00 am)
Low43 °F (Feb 7, 5:00 am)16% (Feb 6, 4:00 pm)29.89 "Hg (Feb 15, 2:00 pm)
Average59 °F62%30.09 "Hg
* Reported Feb 5 8:00 am — Feb 20 8:00 am, Kuwait City. Weather by CustomWeather, © 2019

Note: Actual official high and low records may vary slightly from our data, if they occured in-between our weather recording intervals... More about our weather records

Advertising

Kuwait City Weather History for the Previous 24 Hours

Scroll right to see more
 ConditionsComfort  
Time TempWeatherWind HumidityBarometerVisibility
8:00 am
Wed, Feb 20
54 °FSunny.6 mph63%30.12 "Hg10 mi
7:00 am46 °FSunny.No wind82%30.12 "Hg10 mi
6:00 am45 °FClear.6 mph81%30.09 "Hg10 mi
5:00 am46 °FClear.5 mph82%30.09 "Hg10 mi
4:00 am46 °FClear.5 mph82%30.09 "Hg10 mi
3:00 am48 °FClear.3 mph76%30.07 "Hg10 mi
2:00 am48 °FClear.3 mph76%30.09 "Hg10 mi
1:00 am48 °FClear.5 mph76%30.09 "Hg10 mi
12:00 am50 °FClear.5 mph71%30.09 "Hg10 mi
11:00 pm
Tue, Feb 19
57 °FClear.8 mph59%30.07 "Hg10 mi
10:00 pm59 °FClear.7 mph51%30.07 "Hg10 mi
9:00 pm61 °FClear.10 mph48%30.07 "Hg10 mi
8:00 pm61 °FClear.13 mph45%30.07 "Hg10 mi
7:00 pm63 °FClear.12 mph42%30.04 "Hg10 mi
6:00 pm63 °FClear.13 mph39%30.01 "Hg10 mi
5:00 pm64 °FScattered clouds.16 mph37%29.98 "HgN/A
3:59 pm64 °FScattered clouds.17 mph37%29.98 "HgN/A
3:00 pm66 °FScattered clouds.17 mph35%29.98 "HgN/A
2:00 pm66 °FScattered clouds.15 mph40%29.98 "HgN/A
1:00 pm64 °FBroken clouds.16 mph43%29.98 "HgN/A
12:00 pm63 °FBroken clouds.14 mph45%29.98 "HgN/A
11:00 am61 °FOvercast.10 mph55%30.01 "Hg4 mi
10:00 am61 °FMore clouds than sun.12 mph59%29.98 "Hg4 mi
9:00 am59 °FMore clouds than sun.12 mph63%29.98 "Hg4 mi
Weather by CustomWeather, © 2019

See weather overview